Terminal Aerodrome Forecast
Issued by NWS

Home | Current Version | Previous Version | Text Only | Print | Product List | Glossary Off
Versions: 1 2 3 4 5 6 7 8 9 10 11 12 13

000
FTUS43 KBIS 190500
TAFMOT
TAF
KMOT 190524Z 1906/2006 30018G28KT P6SM BKN025 OVC035
     FM192100 29018G25KT P6SM BKN030
     FM200100 28010KT P6SM SCT035=

USA.gov is the U.S. government's official web portal to all federal, state and local government web resources and services.